FW0689 Weather Reports


Display with metric or nautical units.
time (UTC)temp
F
wind
direction
speed
MPH
gust
MPH
rain 1hr
in
rain 24hr
in
rain mn
in
humidity
%
barometer
mb
20260503221809 56 112 0.0 0.0 0.00 0.00 0.00 35 1016.1
20260503214714 56 202 0.0 0.0 0.00 0.00 0.00 34 1016.0
20260503213714 56 202 0.0 0.0 0.00 0.00 0.00 35 1016.1
20260503212729 56 202 0.0 0.0 0.00 0.00 0.00 35 1016.0
20260503211817 57 202 0.0 0.0 0.00 0.00 0.00 35 1016.1
20260503210816 57 202 0.0 0.0 0.00 0.00 0.00 35 1016.0
20260503205814 57 202 0.0 0.0 0.00 0.00 0.00 35 1016.0
20260503204815 57 202 0.0 0.0 0.00 0.00 0.00 35 1016.0
20260503203815 57 202 0.0 0.0 0.00 0.00 0.00 35 1016.0
20260503202816 57 202 0.0 0.0 0.00 0.00 0.00 35 1016.0
20260503200815 58 202 0.0 0.0 0.00 0.00 0.00 34 1016.0
20260503195817 58 225 0.0 0.0 0.00 0.00 0.00 34 1016.1
20260503194815 58 202 0.0 0.0 0.00 0.00 0.00 34 1016.1
20260503193815 58 219 0.0 0.0 0.00 0.00 0.00 33 1015.9
20260503192914 58 215 0.0 0.0 0.00 0.00 0.00 34 1016.0
20260503190915 58 247 0.0 0.0 0.00 0.00 0.00 34 1015.8
20260503190013 58 213 0.0 0.0 0.00 0.00 0.00 34 1015.6
20260503184014 59 209 0.0 0.0 0.00 0.00 0.00 34 1015.4
20260503183014 59 199 0.0 0.0 0.00 0.00 0.00 34 1015.4
20260503182016 59 204 0.0 0.0 0.00 0.00 0.00 34 1015.2
20260503181016 59 196 0.0 0.0 0.00 0.00 0.00 34 1015.2
20260503175016 59 206 0.0 0.0 0.00 0.00 0.00 34 1015.1
20260503174114 59 206 0.0 0.0 0.00 0.00 0.00 34 1015.1
20260503172116 60 210 0.0 0.0 0.00 0.00 0.00 34 1015.0
20260503171215 60 204 0.0 0.0 0.00 0.00 0.00 33 1015.1
20260503170216 60 200 0.0 0.0 0.00 0.00 0.00 33 1015.0
20260503150515 59 219 0.0 0.0 0.00 0.00 0.00 33 1015.0
20260503130715 66 259 0.0 0.0 0.00 0.00 0.00 35 1014.4
20260503090114 66 157 0.0 0.0 0.00 0.00 0.00 35 1015.2
20260503081313 66 147 0.0 0.0 0.00 0.00 0.00 35 1015.2
20260503080315 65 178 0.0 0.0 0.00 0.00 0.00 35 1015.4
20260503071415 64 119 0.0 0.0 0.00 0.00 0.00 33 1015.5
20260503070413 63 118 0.0 0.0 0.00 0.00 0.00 32 1015.7
20260503054417 58 112 0.0 0.0 0.00 0.00 0.00 33 1016.2
20260503053414 58 112 0.0 0.0 0.00 0.00 0.00 34 1016.2
20260503052415 57 112 0.0 0.0 0.00 0.00 0.00 34 1016.2
20260503051414 57 112 0.0 0.0 0.00 0.00 0.00 34 1016.4
20260503050416 57 112 0.0 0.0 0.00 0.00 0.00 34 1016.4
20260503045415 57 270 0.0 0.0 0.00 0.00 0.00 35 1016.4
20260503043413 57 114 0.0 0.0 0.00 0.00 0.00 35 1016.2
20260503042415 57 180 0.0 0.0 0.00 0.00 0.00 35 1016.2
20260503041415 57 180 0.0 0.0 0.00 0.00 0.00 35 1016.3
20260503035415 57 90 0.0 0.0 0.00 0.00 0.00 35 1016.4
20260503034414 57 90 0.0 0.0 0.00 0.00 0.00 35 1016.3
20260503033414 57 112 0.0 0.0 0.00 0.00 0.00 34 1016.3
20260503032513 57 112 0.0 0.0 0.00 0.00 0.00 35 1016.4
20260503031513 57 90 0.0 0.0 0.00 0.00 0.00 35 1016.4
20260503030514 57 112 0.0 0.0 0.00 0.00 0.00 35 1016.5
20260503025515 57 112 0.0 0.0 0.00 0.00 0.00 35 1016.7
20260503023514 57 112 0.0 0.0 0.00 0.00 0.00 35 1016.8
20260503022515 57 114 0.0 0.0 0.00 0.00 0.00 35 1016.9
20260503021514 57 152 0.0 0.0 0.00 0.00 0.00 34 1017.1
20260503020514 58 118 0.0 0.0 0.00 0.00 0.00 34 1017.0
20260503015516 58 112 0.0 0.0 0.00 0.00 0.00 34 1017.1
20260503014516 57 189 0.0 0.0 0.00 0.00 0.00 34 1017.7
20260503012513 57 183 0.0 0.0 0.00 0.00 0.00 35 1017.3
20260503011517 57 112 0.0 0.0 0.00 0.00 0.00 35 1017.3
20260503010614 57 180 0.0 0.0 0.00 0.00 0.00 35 1017.3
20260503005613 57 112 0.0 0.0 0.00 0.00 0.00 35 1017.1
20260503004615 58 112 0.0 0.0 0.00 0.00 0.00 35 1017.3
20260503003615 58 112 0.0 0.0 0.00 0.00 0.00 35 1017.3
20260503002613 58 112 0.0 0.0 0.00 0.00 0.00 34 1017.6
20260503001613 58 112 0.0 0.0 0.00 0.00 0.00 34 1017.8
20260503000617 58 202 0.0 0.0 0.00 0.00 0.00 35 1018.3
20260502233715 59 189 0.0 0.0 0.00 0.00 0.00 34 1018.8
20260502232717 59 191 0.0 0.0 0.00 0.00 0.00 34 1018.9
20260502231714 58 189 0.0 0.0 0.00 0.00 0.00 33 1019.0
20260502230714 58 192 0.0 0.0 0.00 0.00 0.00 34 1019.0
20260502225714 58 202 0.0 0.0 0.00 0.00 0.00 35 1018.6
20260502223714 59 112 0.0 0.0 0.00 0.00 0.00 35 1018.1
20260502222715 59 112 0.0 0.0 0.00 0.00 0.00 35 1018.3